GW0500 Weather Reports


Display with metric or nautical units.
time (UTC)temp
F
wind
direction
speed
MPH
gust
MPH
rain 1hr
in
rain 24hr
in
rain mn
in
humidity
%
barometer
mb
20260905131559 62 5 0.0 4.0 0.00 0.00 0.00 28 1019.5
20260905131044 62 309 0.0 4.0 0.00 0.00 0.00 28 1019.4
20260905130545 62 53 0.0 3.0 0.00 0.00 0.00 28 1019.3
20260905125619 62 327 1.0 5.0 0.00 0.00 0.00 27 1019.3
20260905125045 61 0 0.0 4.0 0.00 0.00 0.00 27 1019.3
20260905124605 61 52 0.0 4.0 0.00 0.00 0.00 28 1019.3
20260905124044 60 37 0.0 3.0 0.00 0.00 0.00 28 1019.4
20260905123548 60 62 0.0 3.0 0.00 0.00 0.00 27 1019.2
20260905123105 60 277 0.0 3.0 0.00 0.00 0.00 28 1019.3
20260905122547 61 0 0.0 2.0 0.00 0.00 0.00 28 1019.3
20260905122048 61 0 0.0 6.0 0.00 0.00 0.00 28 1019.2
20260905121557 61 50 0.0 6.0 0.00 0.00 0.00 27 1019.2
20260905121047 60 157 1.0 6.0 0.00 0.00 0.00 28 1019.3
20260905120544 60 0 1.0 4.0 0.00 0.00 0.00 27 1019.3
20260905120106 60 51 0.0 4.0 0.00 0.00 0.00 26 1019.1
20260905115550 60 0 0.0 4.0 0.00 0.00 0.00 27 1019.1
20260905115048 60 330 0.0 3.0 0.00 0.00 0.00 26 1019.2
20260905114601 60 0 0.0 3.0 0.00 0.00 0.00 26 1019.1
20260905114048 59 35 0.0 4.0 0.00 0.00 0.00 25 1019.1
20260905113548 59 0 0.0 4.0 0.00 0.00 0.00 25 1019.1
20260905113059 59 26 0.0 2.0 0.00 0.00 0.00 25 1019.2
20260905112544 59 338 0.0 2.0 0.00 0.00 0.00 25 1019.2
20260905112048 59 0 0.0 2.0 0.00 0.00 0.00 26 1019.2
20260905111646 59 348 0.0 2.0 0.00 0.00 0.00 26 1019.1
20260905111047 59 0 0.0 3.0 0.00 0.00 0.00 25 1019.2
20260905110548 59 0 0.0 3.0 0.00 0.00 0.00 27 1019.3
20260905110059 59 339 0.0 3.0 0.00 0.00 0.00 26 1019.4
20260905105548 59 0 0.0 2.0 0.00 0.00 0.00 27 1019.4
20260905105045 59 0 0.0 2.0 0.00 0.00 0.00 25 1019.4
20260905104559 59 44 0.0 4.0 0.00 0.00 0.00 25 1019.4
20260905104047 58 0 0.0 4.0 0.00 0.00 0.00 27 1019.4
20260905103549 58 44 0.0 3.0 0.00 0.00 0.00 25 1019.4
20260905103100 57 47 0.0 2.0 0.00 0.00 0.00 27 1019.3
20260905102548 57 329 0.0 3.0 0.00 0.00 0.00 29 1019.3
20260905102048 57 0 0.0 3.0 0.00 0.00 0.00 30 1019.4
20260905101556 56 34 0.0 3.0 0.00 0.00 0.00 32 1019.5
20260905101047 56 0 0.0 3.0 0.00 0.00 0.00 29 1019.4
20260905100549 56 0 0.0 2.0 0.00 0.00 0.00 33 1019.5
20260905100109 56 0 0.0 2.0 0.00 0.00 0.00 33 1019.6
20260905095544 56 0 0.0 1.0 0.00 0.00 0.00 34 1019.6
20260905095048 56 0 0.0 1.0 0.00 0.00 0.00 36 1019.7
20260905094559 55 0 0.0 1.0 0.00 0.00 0.00 35 1019.7
20260905094058 55 0 0.0 1.0 0.00 0.00 0.00 36 1019.7
20260905093549 55 0 0.0 1.0 0.00 0.00 0.00 36 1019.7
20260905093100 55 0 0.0 1.0 0.00 0.00 0.00 38 1019.7
20260905092546 55 0 0.0 1.0 0.00 0.00 0.00 39 1019.8
20260905092045 55 0 0.0 1.0 0.00 0.00 0.00 39 1019.8
20260905091610 55 0 0.0 1.0 0.00 0.00 0.00 40 1019.7
20260905091045 55 0 0.0 1.0 0.00 0.00 0.00 40 1019.7
20260905090544 55 0 0.0 0.0 0.00 0.00 0.00 42 1019.8
20260905090100 55 0 0.0 0.0 0.00 0.00 0.00 43 1019.8
20260905085546 55 0 0.0 0.0 0.00 0.00 0.00 44 1019.9
20260905085050 55 0 0.0 0.0 0.00 0.00 0.00 45 1020.0
20260905084558 55 0 0.0 0.0 0.00 0.00 0.00 45 1020.0
20260905084043 55 0 0.0 0.0 0.00 0.00 0.00 45 1020.1
20260905083544 55 0 0.0 0.0 0.00 0.00 0.00 46 1020.1
20260905083053 55 0 0.0 0.0 0.00 0.00 0.00 45 1020.1
20260905082544 55 0 0.0 0.0 0.00 0.00 0.00 46 1020.1
20260905082044 55 0 0.0 0.0 0.00 0.00 0.00 46 1020.1
20260905081606 55 0 0.0 0.0 0.00 0.00 0.00 45 1020.2
20260905081042 55 0 0.0 0.0 0.00 0.00 0.00 45 1020.2
20260905080543 56 0 0.0 0.0 0.00 0.00 0.00 45 1020.3
20260905075545 56 0 0.0 0.0 0.00 0.00 0.00 45 1020.4
20260905075044 56 0 0.0 0.0 0.00 0.00 0.00 44 1020.5
20260905074558 56 0 0.0 0.0 0.00 0.00 0.00 44 1020.5
20260905074046 56 0 0.0 0.0 0.00 0.00 0.00 44 1020.5
20260905073546 56 0 0.0 0.0 0.00 0.00 0.00 44 1020.5
20260905073059 56 0 0.0 0.0 0.00 0.00 0.00 44 1020.4
20260905072544 57 0 0.0 0.0 0.00 0.00 0.00 43 1020.4
20260905072043 57 0 0.0 0.0 0.00 0.00 0.00 44 1020.3
20260905071603 57 0 0.0 0.0 0.00 0.00 0.00 43 1020.3
20260905071044 57 0 0.0 0.0 0.00 0.00 0.00 44 1020.2
20260905070545 57 0 0.0 0.0 0.00 0.00 0.00 43 1020.2
20260905070100 57 0 0.0 0.0 0.00 0.00 0.00 44 1020.1
20260905065544 57 0 0.0 0.0 0.00 0.00 0.00 44 1020.1
20260905065045 57 0 0.0 0.0 0.00 0.00 0.00 44 1020.0
20260905064603 56 0 0.0 0.0 0.00 0.00 0.00 45 1020.0
20260905064046 56 0 0.0 0.0 0.00 0.00 0.00 46 1020.0
20260905063543 56 0 0.0 0.0 0.00 0.00 0.00 46 1020.0
20260905063104 56 0 0.0 0.0 0.00 0.00 0.00 47 1020.0
20260905062544 56 0 0.0 0.0 0.00 0.00 0.00 47 1020.1
20260905062046 57 0 0.0 0.0 0.00 0.00 0.00 47 1020.0
20260905061612 57 0 0.0 0.0 0.00 0.00 0.00 47 1020.0
20260905061046 57 0 0.0 0.0 0.00 0.00 0.00 48 1020.0
20260905060546 57 0 0.0 0.0 0.00 0.00 0.00 47 1020.0
20260905060100 57 0 0.0 0.0 0.00 0.00 0.00 47 1020.0
20260905055544 57 0 0.0 0.0 0.00 0.00 0.00 47 1020.0
20260905055044 57 0 0.0 0.0 0.00 0.00 0.00 47 1019.9
20260905054602 57 0 0.0 0.0 0.00 0.00 0.00 46 1019.9
20260905054047 57 0 0.0 0.0 0.00 0.00 0.00 46 1019.8
20260905053545 58 0 0.0 0.0 0.00 0.00 0.00 45 1019.9
20260905053103 58 0 0.0 0.0 0.00 0.00 0.00 45 1019.9
20260905052545 58 0 0.0 0.0 0.00 0.00 0.00 45 1020.0
20260905052043 58 0 0.0 0.0 0.00 0.00 0.00 45 1019.9
20260905051601 58 0 0.0 0.0 0.00 0.00 0.00 45 1019.9
20260905051043 58 0 0.0 0.0 0.00 0.00 0.00 44 1019.8
20260905050543 59 0 0.0 0.0 0.00 0.00 0.00 45 1019.7
20260905050106 59 0 0.0 1.0 0.00 0.00 0.00 45 1019.8
20260905045544 59 0 0.0 1.0 0.00 0.00 0.00 45 1019.7
20260905045044 59 0 0.0 1.0 0.00 0.00 0.00 46 1019.7
20260905044604 59 0 0.0 1.0 0.00 0.00 0.00 46 1019.7
20260905044144 59 0 0.0 1.0 0.00 0.00 0.00 47 1019.7
20260905043544 59 0 0.0 1.0 0.00 0.00 0.00 48 1019.6
20260905043104 58 0 0.0 1.0 0.00 0.00 0.00 49 1019.6
20260905042543 58 0 0.0 1.0 0.00 0.00 0.00 51 1019.6
20260905042043 58 0 0.0 1.0 0.00 0.00 0.00 52 1019.6
20260905041556 57 0 0.0 2.0 0.00 0.00 0.00 54 1019.6
20260905041044 57 0 0.0 2.0 0.00 0.00 0.00 54 1019.6
20260905040546 57 0 0.0 0.0 0.00 0.00 0.00 54 1019.5
20260905035547 58 0 0.0 0.0 0.00 0.00 0.00 54 1019.4
20260905035044 58 0 0.0 0.0 0.00 0.00 0.00 55 1019.6
20260905034607 58 0 0.0 1.0 0.00 0.00 0.00 56 1019.5
20260905034044 58 0 0.0 1.0 0.00 0.00 0.00 55 1019.4
20260905033543 58 0 0.0 0.0 0.00 0.00 0.00 56 1019.3
20260905033104 58 0 0.0 0.0 0.00 0.00 0.00 57 1019.2
20260905032544 59 0 0.0 0.0 0.00 0.00 0.00 57 1019.1
20260905032042 59 0 0.0 0.0 0.00 0.00 0.00 57 1019.1
20260905031559 59 0 0.0 0.0 0.00 0.00 0.00 58 1019.1
20260905031044 60 0 0.0 0.0 0.00 0.00 0.00 57 1019.1
20260905030623 60 0 0.0 0.0 0.00 0.00 0.00 57 1019.1
20260905030547 60 0 0.0 0.0 0.00 0.00 0.00 57 1019.1
20260905030123 60 0 0.0 0.0 0.00 0.00 0.00 57 1019.1
20260905025547 61 0 0.0 0.0 0.00 0.00 0.00 57 1019.0
20260905025048 61 0 0.0 0.0 0.00 0.00 0.00 58 1018.9
20260905024602 61 0 0.0 0.0 0.00 0.00 0.00 58 1018.9
20260905024048 62 0 0.0 0.0 0.00 0.00 0.00 58 1019.0
20260905023550 62 0 0.0 0.0 0.00 0.00 0.00 58 1018.8
20260905023100 63 0 0.0 0.0 0.00 0.00 0.00 58 1018.9
20260905022547 63 0 0.0 0.0 0.00 0.00 0.00 58 1019.0
20260905022047 63 0 0.0 0.0 0.00 0.00 0.00 57 1019.1
20260905021606 64 0 0.0 1.0 0.00 0.00 0.00 56 1018.9
20260905021047 64 0 0.0 1.0 0.00 0.00 0.00 57 1018.9
20260905020545 65 0 0.0 1.0 0.00 0.00 0.00 57 1018.9
20260905020108 65 0 0.0 2.0 0.00 0.00 0.00 56 1018.9
20260905015548 66 0 0.0 2.0 0.00 0.00 0.00 56 1018.9
20260905015050 66 0 0.0 2.0 0.00 0.00 0.00 56 1018.9
20260905014558 66 0 0.0 3.0 0.00 0.00 0.00 55 1019.0
20260905014051 66 313 1.0 3.0 0.00 0.00 0.00 55 1019.0
20260905013547 67 0 0.0 1.0 0.00 0.00 0.00 54 1019.0
20260905013100 67 107 0.0 4.0 0.00 0.00 0.00 54 1018.8
20260905012545 67 0 0.0 4.0 0.00 0.00 0.00 54 1018.9
20260905012046 67 0 0.0 2.0 0.00 0.00 0.00 55 1019.0
20260905011559 68 0 0.0 4.0 0.00 0.00 0.00 54 1018.9
20260905011042 68 0 0.0 4.0 0.00 0.00 0.00 54 1019.1
20260905010543 68 0 0.0 9.0 0.00 0.00 0.00 53 1019.0
20260905005544 69 192 2.0 10.0 0.00 0.00 0.00 51 1019.0
20260905005043 70 339 0.0 5.0 0.00 0.00 0.00 49 1018.9
20260905004614 70 202 1.0 7.0 0.00 0.00 0.00 48 1018.8
20260905004043 71 0 2.0 7.0 0.00 0.00 0.00 45 1018.9
20260905003546 71 133 0.0 7.0 0.00 0.00 0.00 47 1018.9
20260905003057 71 0 1.0 8.0 0.00 0.00 0.00 48 1018.8
20260905002543 72 325 2.0 9.0 0.00 0.00 0.00 47 1018.9
20260905002046 72 134 2.0 9.0 0.00 0.00 0.00 46 1018.8
20260905001556 72 0 2.0 8.0 0.00 0.00 0.00 44 1018.8
20260905001049 73 208 1.0 8.0 0.00 0.00 0.00 45 1018.8
20260905000546 73 134 1.0 7.0 0.00 0.00 0.00 46 1018.9
20260904235547 73 117 1.0 8.0 0.00 0.00 0.00 46 1018.8
20260904235047 73 131 2.0 9.0 0.00 0.00 0.00 44 1018.7
20260904234601 74 163 3.0 9.0 0.00 0.00 0.00 45 1018.7
20260904234050 74 256 1.0 12.0 0.00 0.00 0.00 44 1018.8
20260904233548 74 160 5.0 12.0 0.00 0.00 0.00 42 1018.8
20260904233101 74 173 1.0 12.0 0.00 0.00 0.00 43 1018.8
20260904232546 75 163 2.0 12.0 0.00 0.00 0.00 40 1018.8
20260904232046 75 155 1.0 10.0 0.00 0.00 0.00 39 1019.0
20260904231603 76 223 2.0 10.0 0.00 0.00 0.00 39 1018.9
20260904231047 76 155 2.0 10.0 0.00 0.00 0.00 40 1018.9
20260904230545 76 157 3.0 10.0 0.00 0.00 0.00 39 1018.9
20260904230105 76 202 2.0 9.0 0.00 0.00 0.00 36 1018.9
20260904225544 76 123 3.0 9.0 0.00 0.00 0.00 36 1018.8
20260904225052 76 214 2.0 9.0 0.00 0.00 0.00 37 1018.8
20260904224601 76 144 1.0 13.0 0.00 0.00 0.00 36 1018.8
20260904224050 77 178 3.0 13.0 0.00 0.00 0.00 36 1018.9
20260904223549 76 242 2.0 11.0 0.00 0.00 0.00 35 1019.0
20260904223101 77 167 2.0 12.0 0.00 0.00 0.00 33 1019.0
20260904222545 77 133 5.0 12.0 0.00 0.00 0.00 29 1019.0
20260904222048 77 192 4.0 11.0 0.00 0.00 0.00 28 1019.0
20260904221613 77 216 3.0 11.0 0.00 0.00 0.00 27 1019.1
20260904221045 77 0 3.0 8.0 0.00 0.00 0.00 30 1019.0
20260904220548 77 184 2.0 10.0 0.00 0.00 0.00 27 1019.0
20260904220107 77 200 2.0 10.0 0.00 0.00 0.00 28 1019.2
20260904215547 77 216 3.0 10.0 0.00 0.00 0.00 26 1019.3
20260904215044 77 142 4.0 10.0 0.00 0.00 0.00 26 1019.1
20260904214611 77 343 1.0 11.0 0.00 0.00 0.00 28 1019.1
20260904214047 77 143 2.0 12.0 0.00 0.00 0.00 28 1019.3
20260904213545 77 169 3.0 12.0 0.00 0.00 0.00 28 1019.4
20260904213058 77 148 2.0 8.0 0.00 0.00 0.00 29 1019.3
20260904212549 77 116 1.0 8.0 0.00 0.00 0.00 30 1019.2
20260904212046 77 219 1.0 8.0 0.00 0.00 0.00 29 1019.3
20260904211618 77 349 3.0 9.0 0.00 0.00 0.00 28 1019.3
20260904211048 77 232 2.0 11.0 0.00 0.00 0.00 29 1019.4
20260904210545 77 148 2.0 11.0 0.00 0.00 0.00 30 1019.3
20260904210105 77 163 2.0 11.0 0.00 0.00 0.00 30 1019.4
20260904205549 77 108 2.0 11.0 0.00 0.00 0.00 31 1019.3
20260904205045 77 180 3.0 11.0 0.00 0.00 0.00 30 1019.4
20260904204600 76 164 1.0 9.0 0.00 0.00 0.00 31 1019.4
20260904204045 76 135 1.0 9.0 0.00 0.00 0.00 32 1019.6
20260904203548 76 165 2.0 12.0 0.00 0.00 0.00 32 1019.6
20260904203114 77 249 3.0 12.0 0.00 0.00 0.00 31 1019.4
20260904202544 77 157 2.0 7.0 0.00 0.00 0.00 31 1019.5
20260904202044 76 150 2.0 8.0 0.00 0.00 0.00 32 1019.4
20260904201600 76 95 3.0 9.0 0.00 0.00 0.00 31 1019.4
20260904201044 76 157 2.0 12.0 0.00 0.00 0.00 31 1019.6
20260904200544 76 144 3.0 12.0 0.00 0.00 0.00 29 1019.4
20260904200111 76 137 1.0 6.0 0.00 0.00 0.00 30 1019.5
20260904195546 76 194 1.0 7.0 0.00 0.00 0.00 29 1019.4
20260904195045 75 188 1.0 7.0 0.00 0.00 0.00 28 1019.4
20260904194603 75 227 3.0 7.0 0.00 0.00 0.00 28 1019.5
20260904194044 75 188 1.0 8.0 0.00 0.00 0.00 28 1019.4
20260904193548 75 101 1.0 12.0 0.00 0.00 0.00 29 1019.6
20260904193058 75 213 3.0 12.0 0.00 0.00 0.00 27 1019.5
20260904192542 75 155 2.0 11.0 0.00 0.00 0.00 26 1019.6
20260904192044 75 177 1.0 7.0 0.00 0.00 0.00 25 1019.7
20260904191558 75 167 2.0 9.0 0.00 0.00 0.00 25 1019.7
20260904191044 75 202 2.0 9.0 0.00 0.00 0.00 23 1019.7
20260904190546 75 0 1.0 6.0 0.00 0.00 0.00 24 1019.8
20260904190058 74 149 2.0 8.0 0.00 0.00 0.00 23 1019.9
20260904185546 74 237 1.0 10.0 0.00 0.00 0.00 23 1019.9
20260904185044 73 215 2.0 10.0 0.00 0.00 0.00 23 1019.9
20260904184600 73 144 3.0 10.0 0.00 0.00 0.00 24 1019.8
20260904184046 73 271 1.0 6.0 0.00 0.00 0.00 25 1019.9
20260904183544 72 225 1.0 7.0 0.00 0.00 0.00 27 1020.0
20260904183101 72 166 2.0 10.0 0.00 0.00 0.00 26 1020.0
20260904182544 71 213 1.0 10.0 0.00 0.00 0.00 25 1019.9
20260904182045 71 144 4.0 10.0 0.00 0.00 0.00 24 1019.9
20260904181558 71 99 2.0 9.0 0.00 0.00 0.00 27 1019.9
20260904181047 71 148 0.0 10.0 0.00 0.00 0.00 28 1019.8
20260904180548 71 159 3.0 10.0 0.00 0.00 0.00 26 1019.9
20260904180116 70 192 2.0 8.0 0.00 0.00 0.00 26 1019.9
20260904175548 70 188 1.0 9.0 0.00 0.00 0.00 28 1019.9
20260904175049 70 177 4.0 9.0 0.00 0.00 0.00 27 1019.9
20260904174609 70 0 2.0 9.0 0.00 0.00 0.00 28 1019.8
20260904174047 70 0 2.0 9.0 0.00 0.00 0.00 27 1019.7
20260904173548 70 196 1.0 7.0 0.00 0.00 0.00 26 1019.7
20260904173105 70 94 1.0 7.0 0.00 0.00 0.00 27 1019.7
20260904172545 70 157 2.0 8.0 0.00 0.00 0.00 25 1019.6
20260904172045 70 177 3.0 8.0 0.00 0.00 0.00 24 1019.5
20260904171607 70 174 3.0 8.0 0.00 0.00 0.00 24 1019.5
20260904171047 70 138 1.0 6.0 0.00 0.00 0.00 21 1019.6
20260904170545 70 180 0.0 6.0 0.00 0.00 0.00 20 1019.4
20260904165548 69 205 1.0 4.0 0.00 0.00 0.00 18 1019.4
20260904165048 69 197 1.0 6.0 0.00 0.00 0.00 21 1019.3
20260904164600 68 147 2.0 7.0 0.00 0.00 0.00 18 1019.1
20260904164047 68 190 3.0 7.0 0.00 0.00 0.00 18 1019.1
20260904163548 67 175 0.0 3.0 0.00 0.00 0.00 19 1019.0
20260904163058 66 152 0.0 3.0 0.00 0.00 0.00 19 1019.0
20260904162545 66 184 0.0 5.0 0.00 0.00 0.00 17 1018.8
20260904162044 65 128 0.0 5.0 0.00 0.00 0.00 18 1018.9
20260904161606 64 0 0.0 3.0 0.00 0.00 0.00 21 1018.8
20260904161048 63 0 0.0 3.0 0.00 0.00 0.00 25 1018.8
20260904160548 61 0 0.0 3.0 0.00 0.00 0.00 23 1018.7
20260904160100 60 0 0.0 4.0 0.00 0.00 0.00 29 1018.7
20260904155546 59 55 0.0 4.0 0.00 0.00 0.00 32 1018.7
20260904155047 58 46 0.0 3.0 0.00 0.00 0.00 34 1018.7
20260904154559 57 0 1.0 3.0 0.00 0.00 0.00 34 1018.6
20260904154048 56 46 2.0 3.0 0.00 0.00 0.00 35 1018.5
20260904153547 55 46 1.0 3.0 0.00 0.00 0.00 37 1018.5
20260904153119 55 46 1.0 3.0 0.00 0.00 0.00 37 1018.5
20260904152548 54 0 1.0 3.0 0.00 0.00 0.00 36 1018.5
20260904152049 54 44 1.0 3.0 0.00 0.00 0.00 37 1018.4
20260904151602 53 44 1.0 3.0 0.00 0.00 0.00 37 1018.4
20260904151052 53 0 1.0 3.0 0.00 0.00 0.00 37 1018.4
20260904150543 53 52 0.0 1.0 0.00 0.00 0.00 38 1018.3
20260904150101 53 0 0.0 1.0 0.00 0.00 0.00 40 1018.4
20260904145549 53 0 0.0 1.0 0.00 0.00 0.00 42 1018.3
20260904145042 52 0 0.0 1.0 0.00 0.00 0.00 44 1018.3
20260904144558 52 0 0.0 1.0 0.00 0.00 0.00 45 1018.3
20260904144047 52 0 0.0 1.0 0.00 0.00 0.00 44 1018.3
20260904143544 52 0 0.0 0.0 0.00 0.00 0.00 43 1018.2
20260904143106 51 0 0.0 1.0 0.00 0.00 0.00 42 1018.3
20260904142551 51 0 0.0 1.0 0.00 0.00 0.00 41 1018.2
20260904142045 51 0 0.0 1.0 0.00 0.00 0.00 42 1018.2
20260904141604 51 0 0.0 1.0 0.00 0.00 0.00 42 1018.1
20260904141047 51 0 0.0 1.0 0.00 0.00 0.00 42 1018.0
20260904140547 51 0 0.0 0.0 0.00 0.00 0.00 40 1018.0
20260904140101 51 0 0.0 0.0 0.00 0.00 0.00 40 1017.9
20260904135546 51 0 0.0 0.0 0.00 0.00 0.00 44 1017.9
20260904135047 51 0 0.0 0.0 0.00 0.00 0.00 45 1017.8
20260904134601 51 0 0.0 0.0 0.00 0.00 0.00 43 1017.8
20260904134044 51 0 0.0 0.0 0.00 0.00 0.00 44 1017.7
20260904133548 51 0 0.0 0.0 0.00 0.00 0.00 43 1017.6
20260904133101 51 0 0.0 0.0 0.00 0.00 0.00 42 1017.5
20260904132548 51 0 0.0 0.0 0.00 0.00 0.00 42 1017.4
20260904132047 51 0 0.0 0.0 0.00 0.00 0.00 41 1017.4